Probability
6 13 32 29 19 19 32 35 32 29 26 32 26 29 29 29 26 35 32 26 26 32 29 29 29 32 32 29 29 26 26 26 29 26 26 19 19 19 16 16 19 13 16
6 16 26 32 26 23 26 26 29 29 26 29 19 23 23 29 26 32 26 26 23 29 29 26 29 26 23 23 23 26 26 26 23 26 23 19 16 16 16 16 16 10 16
6 16 16 26 26 26 26 26 26 23 19 23 19 23 23 26 19 26 23 26 23 26 26 23 26 23 23 19 19 19 23 19 19 19 6 0 6 13 16 19 19 16 16
6 6 10 19 26 23 16 16 19 19 19 23 13 19 23 26 23 23 23 23 23 23 26 26 23 23 16 19 19 16 10 10 10 0 0 0 0 10 10 16 13 10 16
6 6 10 19 23 19 16 16 13 10 16 13 16 19 16 23 23 23 23 23 16 16 13 13 10 10 10 13 16 10 6 6 3 0 0 0 0 10 13 10 13 13 6
6 3 10 16 16 16 16 16 13 13 10 10 13 19 13 13 16 13 19 16 13 13 13 13 10 10 10 6 6 6 3 0 0 0 0 0 0 3 10 10 10 13 10
3 3 6 16 19 16 16 13 13 13 10 13 10 10 10 10 16 13 19 13 10 13 13 10 6 10 10 6 6 6 0 0 0 0 0 0 0 0 3 6 10 3 10
0 3 6 13 13 13 13 13 13 13 10 10 6 6 3 6 10 13 10 13 10 10 6 6 10 6 3 6 3 0 0 0 0 0 0 0 0 0 0 6 6 6 6
0 0 3 6 10 6 6 6 6 10 10 10 10 10 6 10 6 13 10 6 6 6 6 10 10 3 3 3 3 0 0 0 0 0 0 0 0 0 0 3 3 3 3
0 0 0 0 3 3 3 3 3 6 6 3 3 3 3 3 3 3 6 3 6 6 6 10 6 3 3 3 3 0 0 0 0 0 0 0 0 0 0 0 3 0 3
0 0 0 0 3 3 3 3 3 3 3 3 3 0 0 0 0 0 0 0 6 6 6 10 3 3 3 3 0 0 0 0 0 0 0 0 0 0 0 0 0 0 0
0 3 0 0 0 0 3 3 3 3 0 0 0 0 0 0 0 0 0 0 0 3 3 3 3 0 0 0 0 0 0 0 0 0 0 0 0 0 0 0 0 0 0
0 3 3 0 0 0 0 3 3 3 3 0 0 0 0 0 0 0 0 0 0 0 0 0 0 0 0 0 0 0 0 0 0 0 0 0 0 0 0 3 0 0 3
0 3 3 3 3 0 0 0 3 3 3 3 0 0 0 0 0 0 0 0 0 0 0 0 0 0 0 0 0 0 0 0 0 0 0 0 0 0 0 3 0 0 0
0 0 3 3 3 0 0 0 3 3 0 0 0 0 0 0 0 0 0 0 0 0 0 0 0 0 0 0 0 0 0 0 0 0 0 0 0 0 0 0 0 0 0
0 0 0 3 3 3 0 0 0 0 0 0 0 0 0 0 0 0 0 0 0 0 0 0 0 0 0 0 0 0 0 0 0 0 0 0 0 0 0 0 0 0 0
0 0 3 3 3 3 3 3 0 0 0 0 0 0 0 0 0 0 0 0 0 0 0 0 0 0 0 0 0 0 0 0 0 0 0 0 0 0 0 0 0 0 0
0 0 3 3 3 3 3 0 0 0 0 0 0 0 0 0 0 0 0 0 0 0 0 0 0 0 0 0 0 0 0 0 0 0 0 0 0 0 0 0 0 0 0
0 0 0 0 0 3 3 3 0 0 0 0 0 0 0 0 0 0 0 0 0 0 0 0 0 0 0 0 0 0 0 0 0 0 0 0 0 0 0 0 0 0 0
0 0 0 0 6 3 3 3 0 0 0 0 0 0 0 0 0 0 0 0 0 0 0 0 0 0 0 0 0 0 0 0 0 0 0 0 0 0 0 0 0 0 0
0 0 0 0 3 3 0 3 3 0 0 0 0 0 0 0 0 0 0 0 0 0 0 0 0 0 0 0 0 0 0 0 0 0 0 0 0 0 0 0 0 0 0
0 0 0 0 0 3 0 0 3 0 0 0 0 0 0 0 0 0 0 0 0 0 0 0 0 0 0 0 0 0 0 0 0 0 0 0 0 0 0 0 0 0 0
0 0 0 0 0 0 0 0 0 0 0 0 0 0 0 0 0 0 0 0 0 0 0 0 0 0 0 0 0 0 0 0 0 0 0 0 0 0 0 0 0 0 0
0 0 0 0 0 0 0 0 0 0 0 0 0 0 0 0 0 0 0 0 0 0 0 0 0 0 0 0 0 0 0 0 0 0 0 0 0 0 0 0 0 0 0
0 0 0 0 0 0 0 0 0 0 0 0 0 0 0 0 0 0 0 0 0 0 0 0 0 0 0 0 0 0 0 0 0 0 0 0 0 0 0 0 0 0 0
0 0 0 0 0 0 0 0 0 0 0 0 0 0 0 0 0 0 0 0 0 0 0 0 0 0 0 0 0 0 0 0 0 0 0 0 0 0 0 0 0 0 0
Height
5834 5834 5834 5835 5835 5835 5835 5835 5834 5835 5835 5835 5836 5836 5836 5837 5837 5838 5838 5838 5839 5839 5840 5841 5842 5842 5843 5843 5844 5845 5845 5846 5846 5847 5847 5848 5848 5849 5849 5849 5850 5850 5851
5831 5831 5832 5832 5832 5832 5832 5832 5831 5831 5832 5833 5833 5834 5834 5834 5835 5835 5836 5836 5836 5837 5838 5838 5839 5840 5840 5841 5842 5843 5843 5844 5844 5845 5845 5846 5846 5847 5847 5847 5848 5848 5848
5829 5829 5829 5829 5829 5829 5829 5829 5828 5828 5829 5830 5830 5831 5831 5832 5832 5833 5833 5833 5833 5834 5835 5836 5837 5837 5838 5838 5839 5840 5841 5841 5842 5842 5843 5843 5844 5844 5845 5845 5845 5846 5846
5825 5826 5826 5826 5826 5826 5826 5826 5826 5825 5826 5826 5827 5827 5828 5828 5829 5829 5830 5830 5831 5831 5832 5833 5834 5834 5835 5835 5836 5837 5838 5838 5839 5840 5840 5841 5841 5841 5842 5842 5842 5843 5843
5822 5822 5822 5822 5822 5822 5823 5823 5822 5822 5823 5823 5823 5824 5825 5825 5825 5826 5826 5827 5827 5828 5829 5829 5830 5831 5831 5832 5833 5833 5834 5835 5835 5836 5837 5837 5838 5838 5839 5839 5839 5840 5840
5818 5818 5818 5818 5818 5818 5819 5819 5819 5819 5819 5819 5819 5820 5820 5821 5821 5822 5822 5823 5823 5824 5825 5826 5826 5827 5828 5828 5829 5830 5830 5831 5831 5832 5833 5834 5834 5835 5835 5835 5836 5836 5837
5813 5814 5814 5814 5814 5814 5814 5814 5814 5814 5815 5815 5815 5815 5816 5816 5817 5817 5818 5818 5819 5819 5820 5821 5822 5822 5823 5824 5825 5825 5826 5827 5827 5828 5828 5829 5830 5831 5831 5831 5832 5832 5833
5808 5809 5809 5809 5809 5809 5809 5809 5809 5809 5809 5810 5810 5810 5811 5811 5812 5812 5813 5813 5814 5814 5815 5816 5816 5817 5818 5819 5820 5821 5821 5822 5823 5823 5824 5825 5826 5826 5826 5827 5827 5828 5828
5803 5803 5803 5803 5804 5804 5803 5803 5803 5803 5803 5804 5804 5805 5805 5805 5806 5806 5807 5808 5808 5809 5809 5810 5811 5811 5812 5813 5814 5815 5816 5817 5818 5818 5819 5820 5820 5821 5821 5822 5822 5823 5823
5797 5797 5797 5797 5797 5797 5797 5797 5797 5797 5797 5797 5797 5798 5798 5799 5799 5800 5800 5801 5802 5802 5803 5803 5804 5805 5806 5807 5808 5809 5810 5811 5812 5812 5813 5814 5815 5815 5816 5817 5817 5817 5818
5790 5790 5790 5790 5791 5791 5790 5790 5790 5790 5790 5790 5790 5791 5791 5792 5792 5793 5793 5794 5794 5795 5795 5796 5797 5797 5798 5799 5801 5802 5803 5804 5805 5806 5807 5808 5809 5809 5810 5811 5811 5812 5812
5783 5783 5783 5783 5783 5783 5783 5783 5783 5782 5782 5783 5783 5783 5783 5784 5784 5784 5785 5785 5786 5786 5787 5788 5789 5789 5790 5791 5793 5794 5796 5797 5798 5799 5800 5801 5802 5803 5803 5804 5805 5805 5806
5776 5776 5776 5776 5776 5776 5775 5775 5775 5775 5774 5774 5774 5774 5775 5775 5775 5776 5776 5777 5777 5778 5778 5779 5780 5780 5781 5783 5784 5786 5787 5789 5790 5791 5792 5793 5794 5795 5796 5797 5798 5798 5799
5768 5769 5769 5769 5768 5768 5767 5767 5766 5766 5766 5766 5766 5766 5766 5766 5766 5766 5767 5767 5767 5768 5769 5769 5770 5771 5772 5773 5775 5776 5778 5780 5781 5783 5784 5785 5786 5788 5788 5789 5790 5791 5792
5761 5761 5761 5761 5760 5760 5759 5759 5758 5758 5758 5758 5757 5757 5757 5757 5757 5757 5757 5757 5757 5758 5759 5759 5760 5762 5763 5764 5765 5767 5768 5770 5772 5773 5775 5776 5778 5779 5780 5781 5782 5783 5783
5752 5752 5752 5752 5752 5752 5751 5750 5750 5749 5749 5749 5748 5748 5748 5748 5747 5747 5747 5747 5747 5748 5748 5750 5750 5752 5753 5754 5755 5756 5758 5760 5762 5763 5765 5767 5768 5769 5770 5772 5773 5774 5775
5743 5744 5743 5743 5743 5742 5742 5741 5741 5740 5740 5740 5739 5739 5739 5738 5737 5737 5737 5737 5737 5737 5738 5739 5740 5741 5742 5744 5745 5746 5747 5749 5751 5753 5755 5756 5758 5759 5760 5761 5763 5764 5765
5734 5734 5734 5734 5733 5733 5732 5732 5731 5731 5730 5730 5730 5729 5729 5728 5728 5727 5727 5727 5727 5727 5728 5728 5729 5730 5731 5733 5734 5735 5737 5738 5740 5742 5743 5745 5747 5748 5750 5751 5752 5753 5755
5724 5724 5724 5724 5723 5723 5723 5722 5722 5721 5721 5720 5720 5719 5719 5718 5718 5718 5717 5717 5717 5717 5717 5717 5718 5719 5720 5721 5723 5724 5725 5726 5728 5730 5732 5733 5735 5737 5738 5740 5741 5742 5744
5715 5715 5714 5714 5713 5713 5713 5712 5712 5711 5711 5710 5710 5709 5709 5708 5708 5707 5707 5707 5707 5707 5707 5707 5707 5707 5708 5709 5710 5712 5713 5714 5715 5717 5719 5721 5723 5725 5726 5728 5729 5730 5732
5705 5705 5705 5704 5704 5703 5702 5702 5701 5701 5700 5700 5699 5698 5698 5698 5697 5697 5697 5697 5696 5696 5696 5696 5696 5696 5696 5697 5698 5699 5700 5701 5703 5705 5706 5708 5710 5712 5713 5715 5717 5718 5720
5696 5695 5695 5695 5694 5693 5692 5692 5691 5691 5690 5690 5689 5688 5687 5687 5687 5686 5686 5686 5685 5685 5685 5685 5684 5684 5685 5685 5685 5686 5688 5689 5690 5692 5693 5695 5697 5699 5700 5702 5704 5705 5707
5686 5686 5685 5685 5684 5684 5683 5682 5681 5680 5680 5679 5678 5677 5677 5676 5675 5675 5675 5674 5674 5674 5673 5673 5673 5673 5674 5673 5673 5674 5675 5677 5678 5679 5681 5682 5683 5685 5687 5688 5690 5692 5694
5677 5677 5676 5675 5675 5674 5673 5672 5671 5671 5670 5669 5667 5667 5666 5665 5664 5664 5663 5663 5662 5662 5662 5662 5662 5662 5662 5662 5662 5662 5663 5663 5664 5667 5668 5669 5670 5672 5673 5675 5677 5679 5680
5668 5667 5666 5666 5665 5664 5663 5663 5662 5661 5660 5659 5657 5656 5655 5654 5653 5652 5652 5651 5651 5651 5651 5651 5650 5651 5651 5651 5651 5651 5651 5651 5651 5652 5655 5657 5658 5659 5660 5662 5664 5665 5667
5659 5658 5657 5656 5655 5654 5654 5653 5652 5651 5650 5648 5647 5646 5645 5644 5642 5641 5640 5640 5639 5639 5639 5639 5639 5639 5639 5639 5639 5638 5638 5638 5638 5639 5641 5643 5645 5647 5648 5649 5651 5652 5654
Wind_Speed
14 14 14 14 14 14 14 14 14 14 14 13 14 14 13 13 13 12 12 13 13 12 12 12 12 12 12 11 11 11 10 10 10 11 10 10 10 10 10 10 9 9 9
15 15 15 15 15 15 15 16 16 16 15 15 15 15 15 14 14 14 14 14 14 14 13 13 13 13 13 13 13 12 13 13 12 12 12 12 12 12 12 11 11 11 11
17 16 16 17 17 17 17 17 17 17 16 16 16 16 16 16 15 15 15 15 16 15 15 14 14 14 14 14 14 14 14 14 14 14 14 14 14 14 14 13 13 13 13
18 18 18 18 19 19 18 19 18 18 18 18 18 18 17 17 17 17 17 16 17 17 17 16 16 16 16 15 15 15 16 15 16 16 16 15 15 16 16 15 15 15 14
19 20 20 20 20 20 20 20 20 20 20 20 20 20 20 19 19 19 19 18 18 18 18 18 18 18 18 17 17 18 17 18 17 17 17 17 17 17 17 17 16 16 16
20 21 22 22 22 22 22 22 22 21 22 22 22 22 22 22 22 22 21 21 21 21 20 21 21 21 21 20 19 19 20 20 19 19 19 19 19 19 18 18 18 18 18
23 23 23 24 24 24 24 24 24 24 24 24 24 23 23 24 24 24 24 23 23 23 23 23 23 23 23 23 22 22 22 21 21 21 21 20 20 20 20 20 20 20 20
25 25 26 26 26 26 26 26 26 26 26 26 26 26 25 25 26 26 27 26 26 25 25 25 25 25 25 25 25 25 24 23 23 23 23 22 22 22 22 22 22 22 21
28 28 28 28 29 29 29 29 28 28 28 29 29 29 28 28 28 29 29 29 28 28 28 28 28 28 28 28 27 27 27 26 26 25 25 25 24 24 24 23 23 24 24
30 30 30 30 31 31 31 31 31 31 30 31 32 31 31 31 31 31 31 31 31 31 31 32 31 31 30 30 29 30 29 29 28 28 27 27 26 26 26 26 25 25 25
31 32 32 32 32 32 33 33 34 34 33 33 33 34 34 34 34 34 34 34 34 34 34 34 34 34 33 33 32 32 31 31 31 30 29 29 29 28 27 28 27 27 26
32 33 34 34 34 34 34 35 35 35 35 35 35 35 36 36 36 36 36 36 37 37 37 36 36 36 36 36 35 35 34 33 33 32 31 31 31 30 30 30 30 29 29
33 33 33 34 35 35 35 35 36 36 37 36 37 37 37 37 38 38 38 38 39 39 39 38 38 38 37 37 37 37 37 36 35 34 34 34 33 33 32 32 32 32 32
34 33 34 34 35 35 36 36 37 37 38 37 38 38 38 38 39 39 40 39 39 39 39 39 39 39 39 39 39 39 39 39 38 38 37 37 36 35 35 34 34 33 33
35 35 35 35 36 36 36 37 38 38 38 38 37 38 39 39 39 40 41 40 39 39 40 40 40 40 40 40 41 41 41 41 41 40 39 39 38 38 37 36 36 35 35
37 37 37 37 37 37 37 37 38 38 39 39 38 38 39 39 40 40 40 40 40 40 40 40 41 40 41 41 41 42 42 42 42 41 41 40 40 40 39 39 38 38 37
37 38 38 38 37 38 38 38 38 39 40 40 40 39 39 39 40 40 40 41 40 41 41 41 42 42 42 42 42 43 43 43 43 43 43 43 42 42 42 41 41 40 40
38 38 38 38 38 38 38 38 39 39 39 40 40 40 40 40 40 40 40 40 40 41 41 42 42 42 43 43 43 44 44 45 45 45 45 44 44 44 44 43 42 42 42
38 37 37 37 37 37 38 38 39 39 39 40 40 41 40 40 40 40 41 41 41 41 41 42 44 44 44 44 45 45 46 46 46 46 46 45 46 45 45 45 44 44 44
36 36 36 36 37 37 38 38 39 39 40 40 40 41 41 40 40 40 41 41 41 42 42 42 44 44 45 46 46 47 47 47 48 47 47 46 46 46 46 47 46 45 45
36 36 36 36 36 37 38 39 39 40 40 40 41 41 42 42 41 41 41 42 42 42 43 43 44 45 45 46 46 47 47 48 48 48 48 48 48 48 47 48 48 47 47
35 36 36 36 36 36 37 38 39 39 40 41 41 41 42 43 43 43 42 42 43 43 43 43 43 43 43 44 44 44 45 46 48 48 49 49 49 49 48 48 49 49 48
35 35 35 36 36 36 36 37 37 38 39 40 40 41 41 42 43 44 44 43 44 44 44 43 42 42 42 43 43 43 44 45 46 47 48 48 49 49 50 49 50 50 50
35 35 35 35 35 36 36 36 37 37 38 39 40 40 41 43 43 44 44 44 43 42 42 42 42 42 43 43 44 44 44 45 46 46 47 47 48 48 49 49 49 50 50
34 35 36 36 36 36 36 37 37 38 39 39 40 41 41 42 43 43 44 44 43 42 42 41 42 43 43 44 44 45 45 46 46 46 46 46 47 47 48 49 48 49 49
34 35 35 36 36 36 37 37 38 38 39 39 40 41 41 41 41 42 42 43 43 44 44 43 43 43 43 44 45 45 46 46 46 46 47 47 47 47 48 48 49 48 49
Wind_Direction
262 263 265 267 268 269 270 271 271 267 263 263 263 262 263 262 261 261 259 255 253 250 247 245 246 247 246 248 249 246 245 245 246 248 248 248 249 252 253 257 260 263 267
262 262 263 265 267 269 270 272 271 267 262 262 263 262 261 261 261 261 258 255 255 252 249 246 247 248 249 250 249 248 248 250 250 251 252 253 254 255 256 259 261 261 266
260 261 263 264 266 268 270 271 271 266 262 261 263 263 261 261 261 262 259 256 255 254 251 247 247 249 250 251 250 250 251 252 252 253 254 255 256 257 257 259 261 262 265
261 261 262 263 265 267 269 270 268 266 263 262 262 262 262 262 261 262 261 258 257 256 254 251 249 250 254 254 253 253 253 253 253 253 256 258 257 258 259 259 263 264 264
262 262 263 265 266 267 268 269 267 265 264 262 261 262 261 261 260 260 261 260 257 256 256 255 252 252 255 257 258 257 257 256 255 254 256 258 258 258 259 260 263 265 265
262 262 264 265 266 267 268 268 267 265 264 262 261 261 260 260 259 259 259 260 259 257 256 257 257 257 257 257 258 258 257 257 257 257 257 257 259 258 258 259 261 263 264
263 263 264 265 265 266 267 267 266 264 263 262 262 261 261 260 259 259 259 259 259 257 257 258 258 258 259 258 257 258 258 257 258 258 259 260 260 261 260 260 260 262 263
264 265 264 265 266 266 266 267 267 265 264 264 263 262 262 261 260 259 259 259 259 259 259 259 259 259 258 258 258 258 259 258 258 259 260 262 262 262 263 263 263 264 265
266 266 265 265 265 266 266 267 268 269 267 265 264 263 262 262 261 260 260 259 259 259 259 259 261 261 260 259 258 258 259 258 259 260 261 262 262 263 264 265 265 265 265
267 266 266 265 265 266 266 266 268 269 269 268 265 264 264 262 261 260 260 260 260 260 260 260 260 260 260 259 259 258 258 258 259 260 261 262 263 264 265 265 267 265 264
267 267 267 267 267 266 266 267 268 268 270 269 266 265 264 264 263 262 261 261 261 260 260 260 260 260 259 259 259 259 259 260 259 260 261 262 262 263 265 265 265 265 264
268 268 268 268 267 267 267 267 268 268 269 270 268 267 267 265 264 264 263 263 263 262 262 261 260 260 259 259 258 258 258 259 260 259 260 261 262 263 263 264 264 263 264
268 268 269 269 268 268 268 268 268 268 268 269 268 267 267 267 266 266 266 265 265 264 263 262 261 260 260 259 258 258 258 258 259 259 260 262 263 264 264 264 265 264 264
268 269 269 269 269 269 269 268 269 269 269 269 270 269 269 269 268 268 267 267 267 265 264 261 261 261 260 259 258 258 258 258 259 259 260 261 262 263 264 264 264 264 264
269 269 270 270 270 271 271 270 270 270 270 270 270 270 270 270 270 269 269 269 268 265 264 262 261 261 260 260 259 259 258 259 259 259 259 260 261 263 263 264 264 264 264
270 269 270 270 270 270 271 271 271 271 270 270 270 271 270 270 270 270 268 268 267 266 265 263 262 261 261 261 260 259 258 259 259 260 260 260 261 262 262 263 264 264 264
270 270 270 270 270 270 270 271 272 271 271 271 270 270 270 270 271 270 269 268 268 267 266 266 264 262 263 262 261 260 259 259 259 260 260 261 261 261 261 262 263 263 264
271 271 270 270 270 270 271 271 271 271 271 271 270 270 270 270 270 270 269 268 268 268 267 267 266 264 263 263 262 261 261 260 260 260 260 261 261 261 261 262 262 263 263
271 271 272 271 270 271 271 272 272 272 271 271 270 270 270 269 269 269 269 269 268 268 268 267 267 266 264 263 262 262 262 261 261 261 260 260 261 261 261 262 263 263 263
270 271 271 272 272 272 272 272 271 271 271 271 271 271 270 269 269 269 269 269 269 268 269 269 268 268 266 264 264 264 263 262 262 261 260 260 261 262 261 261 262 263 263
271 271 272 273 274 273 272 272 272 272 272 271 271 271 270 269 270 270 270 269 268 268 269 269 269 269 269 267 265 264 264 263 262 261 260 260 261 262 262 262 261 262 262
272 272 272 272 273 274 274 273 272 273 273 272 272 271 270 270 270 270 271 270 269 269 269 270 269 269 270 268 266 265 264 263 262 262 262 260 260 261 262 262 261 261 262
271 271 272 272 273 274 274 274 274 274 274 274 273 272 271 271 271 271 270 271 271 270 269 270 269 269 269 269 268 267 266 264 264 264 263 262 261 261 261 261 260 261 261
272 272 272 273 273 273 274 275 275 275 275 275 274 273 272 272 272 272 271 271 271 271 270 270 270 269 269 270 270 270 269 268 266 265 264 263 262 262 262 261 261 260 261
273 273 274 274 274 274 274 275 275 276 276 275 275 275 275 274 274 273 273 271 271 270 270 271 271 271 271 271 272 272 270 270 269 267 264 263 263 262 262 261 261 261 261
273 274 275 275 275 274 274 275 276 277 277 276 275 276 276 275 275 275 274 272 271 271 270 270 271 272 271 271 272 272 272 271 270 268 265 263 262 261 261 262 262 262 262